This is the latest recevied weather packets stored in our database for station/object KD2RHT-13. If no packets are shown the sender has not sent any weather packets the latest 1 day(s).
| Time | Temp. | Humidity | Pressure | Rain* | Wind** | Luminosity | Snow |
|---|---|---|---|---|---|---|---|
| 1778042623 | 8.89° C | 99% | 1012.1 hPa | 0 mm | - | 0 W/m² | - |
| 1778042017 | 8.89° C | 99% | 1012.1 hPa | 0 mm | - | 0 W/m² | - |
| 1778041715 | 8.89° C | 99% | 1012.1 hPa | 0 mm | - | 0 W/m² | - |
| 1778041414 | 8.89° C | 99% | 1012.1 hPa | 1.27 mm | - | 0 W/m² | - |
| 1778041112 | 8.89° C | 99% | 1011.7 hPa | 4.32 mm | - | 0 W/m² | - |
| 1778040809 | 8.89° C | 99% | 1011.7 hPa | 4.83 mm | - | 0 W/m² | - |
| 1778040506 | 8.89° C | 99% | 1012.1 hPa | 3.05 mm | - | 0 W/m² | - |
| 1778040203 | 8.89° C | 99% | 1011.7 hPa | 1.27 mm | - | 0 W/m² | - |
| 1778039597 | 8.89° C | 99% | 1011.7 hPa | 6.6 mm | - | 0 W/m² | - |
| 1778039294 | 8.89° C | 99% | 1012.4 hPa | 6.1 mm | - | 0 W/m² | - |
| 1778038991 | 8.89° C | 99% | 1012.1 hPa | 4.83 mm | - | 0 W/m² | - |
| 1778038688 | 8.89° C | 99% | 1012.1 hPa | 4.32 mm | - | 0 W/m² | - |
| 1778038385 | 8.89° C | 99% | 1012.1 hPa | 3.05 mm | - | 0 W/m² | - |
| 1778038081 | 8.89° C | 99% | 1012.1 hPa | 1.78 mm | - | 0 W/m² | - |
| 1778037778 | 8.89° C | 99% | 1011.7 hPa | 3.05 mm | - | 0 W/m² | - |
| 1778037172 | 8.89° C | 99% | 1012.1 hPa | 3.05 mm | - | 0 W/m² | - |
| 1778036871 | 8.89° C | 99% | 1012.1 hPa | 3.05 mm | - | 0 W/m² | - |
| 1778036568 | 8.89° C | 99% | 1012.1 hPa | 3.56 mm | - | 0 W/m² | - |
| 1778036265 | 8.89° C | 99% | 1012.4 hPa | 1.78 mm | - | 0 W/m² | - |
| 1778035961 | 8.89° C | 99% | 1012.4 hPa | 0 mm | - | 0 W/m² | - |
| 1778035658 | 9.44° C | 99% | 1012.7 hPa | 0 mm | - | 0 W/m² | - |
| 1778035355 | 8.89° C | 99% | 1012.4 hPa | 0 mm | - | 0 W/m² | - |
| 1778035051 | 8.89° C | 99% | 1012.7 hPa | 0 mm | - | 0 W/m² | - |
| 1778034748 | 8.89° C | 99% | 1012.1 hPa | 1.27 mm | - | 0 W/m² | - |
| 1778034445 | 8.89° C | 99% | 1012.4 hPa | 1.78 mm | - | 0 W/m² | - |
* Rain latest hour (hover to see other rain measurements)
** Current wind speed in m/s (hover to see current wind gust speed)